[ hide orbit diagram ]
For accurate long-term ephemerides, please instead use our Horizons system.This orbit viewer was implemented using two-body methods, and hence should not be used for determining accurate long-term trajectories (over several years or decades) or planetary encounter circumstances.
Orbital Elements at Epoch 2459200.5 (2020-Dec-17.0) TDB
Reference: JPL 17 (heliocentric ecliptic J2000)
Element | Value | Uncertainty (1-sigma) | Units |
e | .2387538755435966 | 5.2737e-08 | |
a | 3.192798230355703 | 2.8777e-08 | au |
q | 2.430505279029542 | 1.7804e-07 | au |
i | 9.300687891807753 | 4.0406e-06 | deg |
node | 151.7168032444526 | 3.3367e-05 | deg |
peri | 258.2517411023052 | 3.4076e-05 | deg |
M | 252.5649918508419 | 1.0381e-05 | deg |
tp | 2459822.369072189042 (2022-Aug-30.86907219) | 6.5874e-05 | TDB |
period | 2083.798101241261 5.71 | 2.8172e-05 7.713e-08 | d yr |
n | .1727614588887272 | 2.3357e-09 | deg/d |
Q | 3.955091181681864 | 3.5647e-08 | au |
|
| | Orbit Determination Parameters
Additional Information
|
[ show covariance matrix ]
Physical Parameter Table
Parameter |
Symbol |
Value |
Units |
Sigma |
Reference |
Notes |
absolute magnitude |
H |
14.93 |
|
n/a |
E2021B10 |
|
diameter |
diameter |
3.077 |
km |
0.801 |
urn:nasa:pds:neowise_diameters_albedos::2.0[mainbelt] (http://adsabs.harvard.edu/abs/2011ApJ...741...68M) |
|
geometric albedo |
albedo |
0.204 |
|
0.116 |
urn:nasa:pds:neowise_diameters_albedos::2.0[mainbelt] (http://adsabs.harvard.edu/abs/2011ApJ...741...68M) |
|
|
85243 (1993 QG8) Discovered 1993-Aug-20 by Elst, E. W. at La Silla |
Reference: 20040830/Numbers.arc | Last Updated: 2004-09-06 |
|
[ hide close-approach data ]
Close-Approach Data ...sorted by Date/Time (TDB)
|
Date/Time (TDB) |
Time Uncertainty (days_HH:MM) |
Body |
Nominal Distance (au) |
Minimum Distance (au) |
Maximum Distance (au) |
V-relative (km/s) |
V-infinity (km/s) |
JD (TDB) |
Time Uncertainty (minutes) |
Semi-major axis (km) |
Semi-minor axis (km) |
range-LOV angle (deg) |
N-sigma |
BP |
Orbit Ref. |
Reference |
Modified |
1900-Mar-31 07:12 |
00:05 |
Jupiter |
1.63212249001268 |
1.6321217324035 |
1.63212324762258 |
0.867831991517688 |
n/a |
2415109.799892644 |
5.10994822092598 |
83.5798304900376 |
26.0050178063859 |
69.8179441876275 |
8867264.32462361 |
F |
17 |
CATAB v2.0f-lin.ifort 2020-Nov-12 21:01:37 |
2020-Nov-12 21:01 |
1911-May-20 10:01 |
00:04 |
Jupiter |
1.63108311785049 |
1.63108228800387 |
1.63108394770323 |
1.34188559811464 |
0.872957998770448 |
2419176.917342398 |
3.90594337839513 |
1114.62716081036 |
142.971307237924 |
18.4082564631478 |
1141714.33015337 |
T |
17 |
CATAB v2.0f-lin.ifort 2020-Nov-12 21:01:37 |
2020-Nov-12 21:01 |
1922-Jul-11 08:57 |
00:03 |
Jupiter |
1.73397462058738 |
1.73397321568789 |
1.73397602549012 |
2.07825908309653 |
1.82816536400145 |
2423246.872721433 |
3.21172997144331 |
202.42148155201 |
46.4980375904888 |
-79.9072140744245 |
1192794.05533098 |
T |
17 |
CATAB v2.0f-lin.ifort 2020-Nov-12 21:01:37 |
2020-Nov-12 21:01 |
1933-Aug-14 15:58 |
00:03 |
Jupiter |
1.92812618043203 |
1.92812459022508 |
1.92812777064304 |
2.97790385802632 |
2.82653760393946 |
2427299.164997189 |
2.7418847147633 |
180.519575024192 |
25.7706948434417 |
75.0649487976928 |
2062181.20073883 |
T |
17 |
CATAB v2.0f-lin.ifort 2020-Nov-12 21:01:37 |
2020-Nov-12 21:01 |
2032-Aug-22 23:01 |
< 00:01 |
Jupiter |
1.85056087556519 |
1.85056037798212 |
1.85056137314826 |
3.12991421027371 |
2.98009068330006 |
2463467.459169786 |
0.761760720816941 |
72.7368316393103 |
19.2099469518009 |
-89.9989400472827 |
2398625.83143673 |
T |
17 |
CATAB v2.0f-lin.ifort 2020-Nov-12 21:01:37 |
2020-Nov-12 21:01 |
2043-Sep-01 21:09 |
00:01 |
Jupiter |
1.68526057682129 |
1.68526000250781 |
1.68526115113438 |
1.77891594810096 |
1.46946569548565 |
2467494.381370053 |
1.40835960884807 |
139.553407791703 |
87.7748992969062 |
-41.4167870353279 |
1133605.67676547 |
T |
17 |
CATAB v2.0f-lin.ifort 2020-Nov-12 21:01:37 |
2020-Nov-12 21:01 |
2054-Oct-03 11:51 |
00:02 |
Jupiter |
1.61485673436984 |
1.61485615831872 |
1.61485731042097 |
0.875305346790478 |
n/a |
2471543.993813408 |
2.18648411006879 |
152.584965620253 |
28.7030285972304 |
89.567216988378 |
8413773.49542041 |
F |
17 |
CATAB v2.0f-lin.ifort 2020-Nov-12 21:01:37 |
2020-Nov-12 21:01 |
2065-Nov-16 22:34 |
00:03 |
Jupiter |
1.64373167431715 |
1.64373088564875 |
1.64373246298629 |
0.988257479255948 |
n/a |
2475606.440301972 |
3.0742179620762 |
107.667525117126 |
32.8266936229006 |
-77.8064579845589 |
7335515.63428171 |
F |
17 |
CATAB v2.0f-lin.ifort 2020-Nov-12 21:01:37 |
2020-Nov-12 21:01 |
2076-Dec-27 21:23 |
00:04 |
Jupiter |
1.76771330107765 |
1.76771177207291 |
1.76771483008309 |
1.83527217562738 |
1.55238471061984 |
2479665.390840720 |
4.0203334766435 |
248.176554804779 |
71.7702587159526 |
-53.9375014984338 |
980050.718265466 |
T |
17 |
CATAB v2.0f-lin.ifort 2020-Nov-12 21:01:37 |
2020-Nov-12 21:01 |
2088-Jan-23 09:27 |
00:05 |
Jupiter |
1.96769101339837 |
1.96768864371929 |
1.967693383092 |
2.92834647071517 |
2.77745974627794 |
2483708.893684951 |
4.87567147091886 |
310.905722647886 |
24.1310766194057 |
77.9473382788236 |
2147729.22839262 |
T |
17 |
CATAB v2.0f-lin.ifort 2020-Nov-12 21:01:37 |
2020-Nov-12 21:01 |
2187-Feb-05 18:34 |
00:09 |
Jupiter |
1.80364318495135 |
1.8036391131776 |
1.80364725681943 |
3.20101572293146 |
3.05078129891632 |
2519881.273315012 |
8.70673249459704 |
706.527298004315 |
19.9559874211859 |
79.5380376629937 |
1983816.84551501 |
T |
17 |
CATAB v2.0f-lin.ifort 2020-Nov-12 21:01:37 |
2020-Nov-12 21:01 |
2198-Feb-24 10:59 |
00:09 |
Jupiter |
1.62665401964967 |
1.62665190289618 |
1.62665613650237 |
2.05361002357588 |
1.78210126144023 |
2523917.957527122 |
8.6607589003132 |
777.932251364446 |
48.1998098387359 |
-74.2952464736111 |
1426892.8016816 |
T |
17 |
CATAB v2.0f-lin.ifort 2020-Nov-12 21:01:37 |
2020-Nov-12 21:01 |
|
|